Sterling, IL

2:19 AM CST on November 19, 2019 (GMT -0600)
Whiteside County-Bittorf

Weather History for KSQI - September, 2019

Change the Weather History Date:

Thursday, September 5, 2019

  Actual Average Record
Temperature  
Mean Temperature 60 °F -  
Max Temperature 73 °F 78 °F 89 °F (2007)
Min Temperature 48 °F 54 °F 44 °F (2003)
Degree Days  
Heating Degree Days 4    
Growing Degree Days 10 (Base 50)    
Moisture  
Dew Point 55 °F    
Average Humidity 90    
Maximum Humidity 100    
Minimum Humidity 64    
Precipitation  
Precipitation 0.00 in - - ()
Sea Level Pressure  
Sea Level Pressure 29.92 in    
Wind  
Wind Speed 1 mph ()    
Max Wind Speed 7 mph    
Max Gust Speed -    
Visibility 6.2 miles    
Events Fog    
Averages and records for this station are not official NWS values.
T = Trace of Precipitation, MM = Missing Value Source: Averaged Metar Reports

Daily Weather History Graph

Daily Weather History Graph

Search for Another Location

Airport or City:

Astronomy

Sep. 05, 2019 Rise Set
Actual Time 6:28 AM CDT 7:25 PM CDT
Civil Twilight 6:00 AM CDT 7:53 PM CDT
Nautical Twilight 5:26 AM CDT 8:27 PM CDT
Astronomical Twilight 4:51 AM CDT 9:02 PM CDT
Moon 1:41 PM CDT (9/5) 11:35 PM CDT (9/5)
Length of Visible Light 13h 53m
Length of Day
12h 57m
Waxing Crescent, 45% of the Moon is Illuminated
Sep 5
Waxing Crescent
Sep 5
First Quarter
Sep 13
Full
Sep 21
Last Quarter
Sep 28
New

Hourly Weather History & Observations

Time (CDT) Temp. Dew Point Humidity Pressure Visibility Wind Dir Wind Speed Gust Speed Precip Events Conditions
12:56 AM 54.0 °F 54.0 °F 100% 29.77 in 10.0 mi Calm Calm - N/A   Clear
1:22 AM 55.4 °F 53.6 °F 94% 30.17 in 2.0 mi Calm Calm - N/A   Mostly Cloudy
1:31 AM 55.4 °F 55.4 °F 100% 30.17 in 10.0 mi Calm Calm - N/A   Mostly Cloudy
1:56 AM 55.0 °F 55.0 °F 100% 29.77 in 10.0 mi East 3.5 mph - N/A   Mostly Cloudy
2:51 AM 51.8 °F 51.8 °F 100% 30.17 in 1.8 mi Calm Calm - N/A   Clear
2:56 AM 52.0 °F 52.0 °F 100% 29.77 in 1.5 mi Calm Calm - N/A   Clear
3:01 AM 51.8 °F 51.8 °F 100% 30.17 in 3.0 mi Calm Calm - N/A   Clear
3:52 AM 48.2 °F 48.2 °F 100% 30.17 in 1.5 mi Calm Calm - N/A   Clear
3:56 AM 51.1 °F 51.1 °F 100% 29.77 in 2.0 mi Calm Calm - N/A   Clear
4:06 AM 51.8 °F 51.8 °F 100% 30.17 in 1.2 mi Calm Calm - N/A   Clear
4:33 AM 51.8 °F 51.8 °F 100% 30.17 in 3.0 mi Calm Calm - N/A   Clear
4:46 AM 51.8 °F 51.8 °F 100% 30.17 in 1.0 mi Calm Calm - N/A   Clear
4:50 AM 51.8 °F 50.0 °F 94% 30.17 in 0.5 mi Calm Calm - N/A Fog Fog
4:56 AM 51.1 °F 51.1 °F 100% 29.78 in 0.5 mi Calm Calm - N/A Fog Fog
5:10 AM 51.8 °F 51.8 °F 100% 30.18 in 2.5 mi Calm Calm - N/A   Clear
5:17 AM 51.8 °F 51.8 °F 100% 30.18 in 4.0 mi Calm Calm - N/A   Clear
5:56 AM 50.0 °F 50.0 °F 100% 29.79 in 5.0 mi Calm Calm - N/A   Clear
6:02 AM 51.8 °F 51.8 °F 100% 30.19 in 1.5 mi Calm Calm - N/A   Clear
6:16 AM 50.0 °F 50.0 °F 100% 30.18 in 3.0 mi ESE 3.5 mph - N/A   Clear
6:52 AM 50.0 °F 50.0 °F 100% 30.19 in 2.0 mi ESE 3.5 mph - N/A   Clear
6:56 AM 50.0 °F 50.0 °F 100% 29.80 in 2.5 mi Calm Calm - N/A   Clear
7:12 AM 51.8 °F 51.8 °F 100% 30.20 in 1.8 mi East 3.5 mph - N/A   Clear
7:16 AM 51.8 °F 51.8 °F 100% 30.20 in 3.0 mi Calm Calm - N/A   Clear
7:56 AM 55.0 °F 55.0 °F 100% 29.81 in 8.0 mi Calm Calm - N/A   Clear
8:56 AM 60.1 °F 57.9 °F 93% 29.81 in 10.0 mi SE 4.6 mph - N/A   Clear
9:56 AM 64.0 °F 59.0 °F 84% 29.80 in 10.0 mi Variable 4.6 mph - N/A   Clear
10:46 AM 64.4 °F 57.2 °F 77% 30.18 in 10.0 mi Variable 4.6 mph - N/A   Mostly Cloudy
10:56 AM 64.9 °F 57.9 °F 78% 29.78 in 10.0 mi SSW 3.5 mph - N/A   Mostly Cloudy
11:56 AM 68.0 °F 57.9 °F 70% 29.78 in 10.0 mi Variable 3.5 mph - N/A   Mostly Cloudy
12:18 PM 69.8 °F 57.2 °F 64% 30.17 in 10.0 mi Variable 5.8 mph - N/A   Scattered Clouds
12:56 PM 70.0 °F 57.9 °F 65% 29.76 in 10.0 mi Variable 4.6 mph - N/A   Partly Cloudy
1:56 PM 72.0 °F 59.0 °F 64% 29.74 in 10.0 mi Variable 3.5 mph - N/A   Partly Cloudy
2:56 PM 73.0 °F 60.1 °F 64% 29.71 in 10.0 mi Variable 3.5 mph - N/A   Partly Cloudy
3:56 PM 73.0 °F 60.1 °F 64% 29.67 in 10.0 mi Variable 4.6 mph - N/A   Partly Cloudy
4:56 PM 73.9 °F 61.0 °F 64% 29.66 in 10.0 mi Variable 4.6 mph - N/A   Clear
5:56 PM 73.0 °F 61.0 °F 66% 29.65 in 10.0 mi SE 6.9 mph - N/A   Clear
6:56 PM 70.0 °F 61.0 °F 73% 29.64 in 10.0 mi SE 5.8 mph - N/A   Clear
7:56 PM 68.0 °F 61.0 °F 78% 29.61 in 10.0 mi SE 4.6 mph - N/A   Clear
8:56 PM 64.9 °F 61.0 °F 87% 29.61 in 10.0 mi ESE 4.6 mph - N/A   Clear
9:56 PM 62.1 °F 61.0 °F 96% 29.62 in 10.0 mi Calm Calm - N/A   Clear
10:56 PM 62.1 °F 61.0 °F 96% 29.61 in 10.0 mi ESE 3.5 mph - N/A   Mostly Cloudy
11:56 PM 64.0 °F 61.0 °F 90% 29.59 in 10.0 mi SE 3.5 mph - N/A   Overcast